Location: Unspecified
(50.7693°N, 0.0000°E)
Time: 01:25:41
(UTC+00:00)

SR - Pass Details

Date: 04 July 2019
Orbit: 578 x 878 km, 66.7° (Epoch: 16 August)

Event Time Altitude Azimuth Distance (km) Brightness Sun altitude
Rises 01:42:53 0° 229° (SW) 2,788 - -13.2°
Reaches altitude 10° 01:45:06 10° 233° (SW) 1,902 - -13.0°
Exits shadow 01:45:57 16° 237° (WSW) 1,573 ? -13.0°
Maximum altitude 01:49:16 56° 312° (NW) 719 ? -12.8°
Drops below altitude 10° 01:53:41 10° 32° (NNE) 2,008 ? -12.5°
Sets 01:56:05 0° 37° (NE) 2,961 ? -12.3°
